EW5627 Weather Reports


Display with metric or nautical units.
time (UTC)temp
F
wind
direction
speed
MPH
gust
MPH
rain 1hr
in
rain 24hr
in
rain mn
in
humidity
%
barometer
mb
20260509201549 56 333 0.0 0.0 0.04 0.23 0.23 90 1010.5
20260509200050 56 313 0.0 0.0 0.05 0.22 0.22 90 1010.3
20260509194548 56 313 0.0 0.0 0.07 0.23 0.22 90 1010.0
20260509193059 56 309 0.0 0.0 0.10 0.22 0.21 89 1010.5
20260509191608 56 309 0.0 1.0 0.14 0.20 0.19 88 1010.6
20260509190058 57 307 0.0 1.0 0.16 0.18 0.17 88 1011.0
20260509184545 57 187 0.0 1.0 0.14 0.16 0.15 86 1010.9
20260509183045 58 198 0.0 1.0 0.10 0.12 0.11 83 1011.1
20260509181543 60 229 0.0 0.0 0.04 0.06 0.05 78 1010.6
20260509180043 62 179 0.0 0.0 0.00 0.02 0.01 68 1010.2
20260509174543 63 264 0.0 0.0 0.00 0.02 0.01 66 1009.8
20260509173053 64 188 0.0 0.0 0.00 0.02 0.01 69 1009.8
20260509171548 64 219 0.0 0.0 0.00 0.02 0.01 68 1010.0
20260509170042 64 208 0.0 0.0 0.00 0.02 0.01 67 1010.2
20260509164545 63 190 0.0 0.0 0.00 0.02 0.01 68 1010.3
20260509163029 61 216 0.0 0.0 0.00 0.02 0.01 74 1010.6
20260509161526 60 186 0.0 0.0 0.00 0.02 0.01 77 1011.2
20260509160024 59 167 0.0 0.0 0.00 0.02 0.01 79 1011.4
20260509154519 58 220 0.0 0.0 0.00 0.02 0.01 82 1011.5
20260509153015 57 191 0.0 0.0 0.00 0.02 0.01 82 1011.4
20260509151515 56 202 0.0 0.0 0.00 0.02 0.01 81 1011.8
20260509150014 56 209 0.0 0.0 0.00 0.02 0.01 83 1011.5
20260509144514 57 155 0.0 0.0 0.00 0.02 0.01 83 1011.5
20260509143015 56 186 0.0 0.0 0.00 0.02 0.01 84 1011.6
20260509141519 56 182 0.0 0.0 0.00 0.02 0.01 85 1011.5
20260509140008 55 205 0.0 0.0 0.00 0.02 0.01 89 1011.3
20260509134504 54 86 0.0 0.0 0.00 0.02 0.01 91 1011.3
20260509133001 53 191 0.0 0.0 0.00 0.02 0.01 91 1011.7
20260509131634 52 67 0.0 0.0 0.00 0.02 0.01 92 1011.5
20260509130104 51 325 0.0 0.0 0.00 0.02 0.01 91 1011.9
20260509124551 51 22 0.0 0.0 0.00 0.02 0.01 91 1011.6
20260509123054 50 81 0.0 0.0 0.00 0.02 0.01 91 1012.0
20260509121550 50 83 0.0 0.0 0.00 0.02 0.01 90 1011.7
20260509120045 50 81 0.0 0.0 0.00 0.02 0.01 90 1012.1
20260509114554 50 79 0.0 0.0 0.00 0.02 0.01 90 1012.4
20260509113046 50 88 0.0 0.0 0.00 0.02 0.01 89 1012.4
20260509111541 50 85 0.0 0.0 0.00 0.02 0.01 88 1012.4
20260509110043 50 85 0.0 0.0 0.00 0.02 0.01 88 1012.0
20260509104548 49 83 0.0 0.0 0.00 0.02 0.01 87 1012.0
20260509103035 49 80 0.0 0.0 0.00 0.02 0.01 87 1011.6
20260509101534 49 82 0.0 0.0 0.00 0.02 0.01 86 1011.5
20260509100036 50 80 0.0 0.0 0.00 0.02 0.01 85 1011.4
20260509094531 50 84 0.0 0.0 0.00 0.02 0.01 84 1011.7
20260509093028 50 87 0.0 1.0 0.00 0.02 0.01 83 1011.5
20260509091528 50 105 0.0 0.0 0.00 0.02 0.01 82 1011.8
20260509090029 50 109 0.0 0.0 0.00 0.02 0.01 81 1011.7
20260509084527 50 125 0.0 0.0 0.00 0.02 0.01 81 1011.8
20260509083024 50 126 0.0 0.0 0.00 0.02 0.01 80 1011.7
20260509081536 50 136 0.0 0.0 0.00 0.02 0.01 79 1011.9
20260509080022 51 136 0.0 0.0 0.00 0.02 0.01 78 1012.0
20260509074522 51 140 0.0 0.0 0.00 0.03 0.01 78 1011.9
20260509073021 51 142 0.0 0.0 0.00 0.03 0.01 77 1011.9
20260509071521 51 142 0.0 0.0 0.00 0.03 0.01 77 1011.7
20260509070018 51 160 0.0 0.0 0.00 0.03 0.01 75 1011.9
20260509064517 51 160 0.0 0.0 0.01 0.06 0.01 76 1011.8
20260509063016 51 167 0.0 0.0 0.01 0.06 0.01 77 1011.9
20260509061512 51 167 0.0 0.0 0.01 0.06 0.01 77 1012.1
20260509060011 52 175 0.0 0.0 0.01 0.06 0.01 73 1012.5
20260509054511 52 194 0.0 0.0 0.00 0.05 0.00 72 1012.4
20260509053010 51 194 0.0 0.0 0.00 0.05 0.00 71 1012.5
20260509051504 51 194 0.0 0.0 0.00 0.05 0.00 72 1012.6
20260509050008 51 194 0.0 0.0 0.00 0.05 0.00 73 1012.4
20260509044501 51 194 0.0 0.0 0.00 0.05 0.00 72 1012.3
20260509043102 51 193 0.0 0.0 0.00 0.05 0.00 72 1012.5
20260509041559 51 192 0.0 0.0 0.00 0.05 0.00 72 1012.4
20260509040111 51 192 0.0 0.0 0.00 0.05 0.00 72 1012.5
20260509034612 52 154 0.0 0.0 0.00 0.05 0.05 72 1012.6
20260509033052 52 186 0.0 0.0 0.00 0.05 0.05 72 1012.7
20260509031551 52 200 0.0 0.0 0.00 0.05 0.05 71 1012.7
20260509030058 52 195 0.0 0.0 0.00 0.05 0.05 70 1012.7
20260509024548 52 201 0.0 0.0 0.00 0.05 0.05 68 1012.6
20260509023050 52 211 0.0 0.0 0.00 0.05 0.05 67 1012.4
20260509021545 52 182 0.0 0.0 0.00 0.05 0.05 68 1012.3
20260509020047 52 182 0.0 0.0 0.00 0.05 0.05 66 1012.0
20260509014541 52 182 0.0 0.0 0.00 0.05 0.05 66 1011.9
20260509013050 52 182 0.0 1.0 0.00 0.05 0.05 65 1011.7
20260509011539 52 182 0.0 0.0 0.00 0.05 0.05 67 1011.7
20260509010038 52 182 0.0 0.0 0.00 0.05 0.05 66 1011.5
20260509004638 52 182 0.0 0.0 0.00 0.05 0.05 64 1011.4
20260509003057 52 182 0.0 0.0 0.00 0.05 0.05 64 1011.2
20260509001536 53 234 0.0 1.0 0.00 0.05 0.05 63 1011.0
20260509000038 54 273 0.0 0.0 0.00 0.05 0.05 62 1011.1
20260508234535 54 266 0.0 0.0 0.00 0.05 0.05 61 1010.9
20260508233035 55 266 0.0 0.0 0.00 0.05 0.05 61 1010.8
20260508231539 55 266 0.0 0.0 0.00 0.05 0.05 61 1010.8
20260508230034 55 266 0.0 0.0 0.00 0.05 0.05 61 1010.6
20260508224536 56 268 0.0 0.0 0.00 0.05 0.05 59 1010.4
20260508223033 56 266 0.0 1.0 0.00 0.05 0.05 58 1010.5
20260508221532 57 178 0.0 0.0 0.00 0.05 0.05 58 1010.4
20260508220032 57 265 0.0 0.0 0.00 0.05 0.05 59 1010.3
20260508214532 57 186 0.0 0.0 0.00 0.05 0.05 60 1010.3
20260508213033 56 261 0.0 0.0 0.00 0.05 0.05 60 1010.7
20260508211531 56 254 0.0 1.0 0.00 0.05 0.05 60 1010.7
20260508210032 56 254 0.0 1.0 0.00 0.05 0.05 59 1010.7
20260508204529 58 255 0.0 1.0 0.00 0.05 0.05 54 1010.7
20260508203029 59 259 0.0 0.0 0.00 0.05 0.05 52 1010.5